Location: Newark
(48.8667°N, 7.2667°E)
Time: 06:07:36
(UTC+00:00)

Envisat - Visible Passes

Search period start: 20 October 2019 00:00
Search period end: 30 October 2019 00:00
Orbit: 764 x 766 km, 98.1° (Epoch: 19 October)

Date Brightness Start Highest point End Pass type
(mag) Time Alt. Az. Time Alt. Az. Time Alt. Az.
20 Oct 3.1 17:32:07 10° SSE 17:37:12 81° WSW 17:42:20 10° NNW visible
20 Oct 6.2 19:15:11 10° WSW 19:17:03 12° W 19:18:56 10° WNW visible
21 Oct 3.2 16:55:36 10° SE 17:00:30 51° ENE 17:05:26 10° N visible
21 Oct 5.3 18:35:41 10° SSW 18:39:49 25° W 18:43:58 10° NW visible
22 Oct 6.4 05:02:11 10° ENE 05:04:29 13° E 05:06:47 10° ESE visible
22 Oct 4.0 17:57:51 10° S 18:02:46 49° W 18:07:43 10° NNW visible
23 Oct 3.0 17:20:52 10° SSE 17:25:56 83° ENE 17:31:03 10° NNW visible
23 Oct 6.0 19:02:46 10° WSW 19:05:37 15° W 19:08:30 10° NW visible
24 Oct 5.9 05:26:26 10° NE 05:30:19 22° E 05:34:11 10° SE visible
24 Oct 5.0 18:24:01 10° SSW 18:28:26 30° W 18:32:55 10° NNW visible
25 Oct 6.7 04:52:33 10° ENE 04:53:02 10° E 04:53:32 10° E visible
25 Oct 3.6 17:46:27 10° S 17:51:28 61° W 17:56:31 10° NNW visible
26 Oct 3.0 17:09:39 10° SSE 17:14:41 68° ENE 17:19:45 10° N visible
26 Oct 5.7 18:50:43 10° SW 18:54:13 19° W 18:57:44 10° NW visible
27 Oct 6.1 05:15:33 10° NE 05:18:55 18° E 05:22:18 10° SE visible
27 Oct 4.6 18:12:25 10° SSW 18:17:05 37° W 18:21:48 10° NNW visible
28 Oct 3.2 17:35:06 10° S 17:40:11 75° WSW 17:45:18 10° NNW visible
28 Oct 6.2 19:18:50 10° W 19:20:05 11° W 19:21:21 10° WNW visible
29 Oct 3.1 16:58:31 10° SSE 17:03:28 55° ENE 17:08:26 10° N visible
29 Oct 5.4 18:38:51 10° SW 18:42:50 23° W 18:46:48 10° NW visible
